Weather History for Lytton, BC

Change the Weather History Date:

Sunday, October 16, 2011

  Actual Average Record
Temperature  
Mean Temperature 43 °F -  
Max Temperature 54 °F 54 °F 68 °F (1997)
Min Temperature 32 °F 39 °F 32 °F (2011)
Degree Days  
Heating Degree Days 22    
Moisture  
Dew Point 35 °F    
Average Humidity 89    
Maximum Humidity 100    
Minimum Humidity 43    
Precipitation  
Precipitation 0.00 in - - ()
Sea Level Pressure  
Sea Level Pressure 30.17 in    
Wind  
Wind Speed 1 mph ()    
Max Wind Speed 5 mph    
Max Gust Speed -    
Visibility 5.1 miles    
Events      
Averages and records for this station are not official NWS values.
T = Trace of Precipitation, MM = Missing Value Source: Averaged Metar Reports

Daily Weather History Graph

Daily Weather History Graph

Search for Another Location

Airport:

Trip Planner

Search our weather history database for the weather conditions in past years. The results will help you decide how hot, cold, wet, or windy it might be!

Date:

Astronomy

Oct. 16, 2011 Rise Set
Actual Time 7:29 AM PDT 6:13 PM PDT
Civil Twilight 6:57 AM PDT 6:45 PM PDT
Nautical Twilight 6:19 AM PDT 7:23 PM PDT
Astronomical Twilight 5:41 AM PDT 8:00 PM PDT
Moon 8:36 PM PDT (10/16) 12:18 PM PDT (10/16)
Length of Visible Light 11h 48m
Length of Day
10h 43m
Waning Gibbous, 81% of the Moon is Illuminated
Oct 16
Waning Gibbous
Oct 19
Last Quarter
Oct 26
New
Nov 2
First Quarter
Nov 10
Full

Hourly Weather History & Observations

Time (PDT) Temp. Windchill Dew Point Humidity Pressure Visibility Wind Dir Wind Speed Gust Speed Precip Events Conditions
12:00 AM 35.6 °F - 35.6 °F 100% 30.15 in 4.0 mi Calm Calm - N/A   Overcast
12:02 AM 35.6 °F - 35.6 °F 100% 30.12 in 1.6 mi Calm Calm - N/A   Overcast
12:03 AM 35.6 °F - 35.6 °F 100% 30.12 in 1.1 mi Calm Calm - N/A   Overcast
12:04 AM 35.6 °F - 35.6 °F 100% 30.12 in 0.6 mi Calm Calm - N/A   Overcast
12:08 AM 35.6 °F - 35.6 °F 100% 30.12 in 0.4 mi Calm Calm - N/A   Overcast
12:24 AM 35.6 °F - 35.6 °F 100% 30.12 in 0.5 mi Calm Calm - N/A   Overcast
12:25 AM 37.4 °F - 37.4 °F 100% 30.12 in 0.4 mi Calm Calm - N/A   Overcast
12:33 AM 35.6 °F - 35.6 °F 100% 30.12 in 0.1 mi Calm Calm - N/A   Overcast
1:00 AM 35.6 °F - 35.6 °F 100% 30.14 in 0.1 mi Calm Calm - N/A   Overcast
2:00 AM 36 °F - 36 °F 100% 30.15 in 0 mi Calm Calm - -   Overcast
2:00 AM 35.6 °F - 35.6 °F 100% 30.15 in 0.1 mi Calm Calm - N/A   Overcast
4:00 AM 35.6 °F - 35.6 °F 100% 30.16 in 0.1 mi Calm Calm - N/A   Overcast
5:00 AM 34 °F - 34 °F 100% 30.17 in 0 mi Calm Calm - -   Overcast
5:00 AM 33.8 °F - 33.8 °F 100% 30.17 in 0.1 mi Calm Calm - N/A   Overcast
7:00 AM 33.8 °F - 33.8 °F 100% 30.18 in 0.4 mi Calm Calm - N/A   Overcast
7:43 AM 32.0 °F - 32.0 °F 100% 30.16 in 0.8 mi Calm Calm - N/A   Overcast
7:47 AM 33.8 °F - 33.8 °F 100% 30.16 in 1.6 mi Calm Calm - N/A   Overcast
7:54 AM 32.0 °F - 32.0 °F 100% 30.16 in 1.4 mi Calm Calm - N/A   Overcast
8:00 AM 33 °F - 33 °F 100% 30.19 in 1 mi Calm Calm - -   Overcast
8:00 AM 33.8 °F - 33.8 °F 100% 30.19 in 1.5 mi Calm Calm - N/A   Overcast
8:12 AM 33.8 °F - 33.8 °F 100% 30.17 in 5.0 mi Calm Calm - N/A   Overcast
8:41 AM 32.0 °F - 32.0 °F 100% 30.18 in 5.0 mi East 2.3 mph - N/A   Overcast
8:42 AM 32.0 °F - 32.0 °F 100% 30.18 in 4.0 mi Calm Calm - N/A   Overcast
9:00 AM 32.0 °F - 32.0 °F 100% 30.21 in 9.0 mi Calm Calm - N/A   Overcast
10:15 AM 33.8 °F 30.8 °F 33.8 °F 100% 30.19 in 9.0 mi South 3.5 mph - N/A   Overcast
10:30 AM 35.6 °F - 33.8 °F 93% 30.19 in 9.0 mi SSE 2.3 mph - N/A   Overcast
10:41 AM 35.6 °F 32.8 °F 33.8 °F 93% 30.19 in 9.0 mi SSE 3.5 mph - N/A   Overcast
10:57 AM 35.6 °F - 33.8 °F 93% 30.19 in 9.0 mi Calm Calm - N/A   Overcast
11:00 AM 36 °F - 35 °F 92% 30.22 in 9 mi South 2.3 mph - -   Overcast
11:00 AM 35.6 °F - 33.8 °F 93% 30.22 in 9.0 mi South 2.3 mph - N/A   Overcast
11:07 AM 37.4 °F - 33.8 °F 87% 30.20 in 9.0 mi Calm Calm - N/A   Overcast
11:17 AM 39.2 °F - 35.6 °F 87% 30.19 in 9.0 mi SSW 2.3 mph - N/A   Mostly Cloudy
12:00 PM 42.8 °F 40.1 °F 35.6 °F 76% 30.20 in 9.0 mi South 4.6 mph - N/A   Clear
1:00 PM 46.4 °F 45.2 °F 32.0 °F 57% 30.18 in 9.0 mi SSW 3.5 mph - N/A   Clear
2:00 PM 48 °F - 33 °F 43% 30.16 in 9 mi Calm Calm - -  
2:00 PM 48.2 °F - 32.0 °F 54% 30.16 in 9.0 mi NW 2.3 mph - N/A   Clear
3:00 PM 51.8 °F - 33.8 °F 50% 30.15 in 9.0 mi Calm Calm - N/A   Clear
4:00 PM 51.8 °F - 33.8 °F 50% 30.14 in 9.0 mi Calm Calm - N/A   Clear
5:00 PM 49 °F - 38 °F 56% 30.14 in 9 mi SSE 2.3 mph - -  
6:00 PM 46.4 °F - 39.2 °F 76% 30.16 in 9.0 mi Calm Calm - N/A   Clear
7:00 PM 42.8 °F - 37.4 °F 81% 30.19 in 9.0 mi Calm Calm - N/A   Clear
8:00 PM 41 °F - 37 °F 81% 30.22 in 9 mi Calm Calm - -  
8:00 PM 41.0 °F - 37.4 °F 87% 30.22 in 9.0 mi North 2.3 mph - N/A   Clear
10:00 PM 39.2 °F 35.9 °F 33.8 °F 81% 30.26 in 9.0 mi NNE 4.6 mph - N/A   Clear
11:00 PM 40 °F - 35 °F 76% 30.27 in 9 mi North 3.5 mph - -  
11:00 PM 39.2 °F 37.0 °F 35.6 °F 87% 30.27 in 9.0 mi North 3.5 mph - N/A   Clear